time_stamp(utc),avg(mph),gust(mph),direction(deg),12m_air_temp(f),sonic_u(cm/s),sonic_v(cm/s),sonic_w(cm/s),pressure,2m_air_temp(f),pyranometer(W/m^2)
"2018-10-14 00:02:07+00",15.1,17.1,,55.1,-649,156,45,1016.47,54.8,0
"2018-10-14 00:07:07+00",11.2,13.2,,55,-498,64,60,1016.66,54.8,0
"2018-10-14 00:12:07+00",11.8,14.8,,55.1,-508,149,68,1016.6,54.8,0
"2018-10-14 00:17:07+00",13.6,14.6,,54.9,-557,262,28,1016.54,54.6,0
"2018-10-14 00:22:07+00",15.4,18.4,,54.8,-651,223,48,1016.81,54.4,0
"2018-10-14 00:27:07+00",13.4,17.4,,54.8,-562,205,40,1016.82,54.4,0
"2018-10-14 00:32:07+00",12.5,14.5,,54.9,-561,83,42,1017.04,54.5,0
"2018-10-14 00:37:07+00",11.8,12.8,,54.9,-509,145,27,1017.11,54.5,0
"2018-10-14 00:42:07+00",12.2,13.2,,54.8,-494,228,20,1017.22,54.5,0
"2018-10-14 00:47:07+00",12.6,16.6,,54.8,-501,239,31,1017.29,54.2,0
"2018-10-14 00:52:07+00",14.6,16.6,,54.9,-552,356,37,1017.33,54.2,0
"2018-10-14 00:57:07+00",14.9,15.9,,54.9,-580,317,25,1017.38,54.2,0
"2018-10-14 01:02:07+00",12.2,15.2,,54.6,-480,231,20,1017.44,54.1,0
"2018-10-14 01:07:07+00",11.4,12.4,,54.5,-469,217,32,1017.44,54,0
"2018-10-14 01:12:07+00",12.2,13.2,,54.2,-498,232,25,1017.43,53.8,0
"2018-10-14 01:17:07+00",13.1,14.1,,54.3,-506,300,34,1017.4,53.6,0
"2018-10-14 01:22:07+00",12.1,15.1,,54.2,-495,213,28,1017.46,53.6,0
"2018-10-14 01:27:07+00",11.7,13.7,,54.2,-440,282,36,1017.49,53.5,0
"2018-10-14 01:32:07+00",10.9,11.9,,54,-438,209,31,1017.44,53.5,0
"2018-10-14 01:37:07+00",10.7,12.7,,53.7,-400,260,38,1017.53,53.3,0
"2018-10-14 01:42:07+00",10.4,11.4,,53.8,-388,250,36,1017.51,53.2,0
"2018-10-14 01:47:07+00",12.1,13.1,,53.9,-478,256,34,1017.41,53.2,0
"2018-10-14 01:52:07+00",10.1,11.1,,54,-382,239,20,1017.56,53.3,0
"2018-10-14 01:57:07+00",9.2,10.2,,53.9,-371,153,17,1017.66,53.3,0
"2018-10-14 02:02:07+00",9.8,10.8,,54,-385,214,25,1017.73,53.2,0
"2018-10-14 02:07:07+00",11.1,13.1,,53.8,-458,183,32,1017.77,53.2,0
"2018-10-14 02:12:07+00",8.8,10.8,,53.7,-374,127,28,1017.79,53.3,0
"2018-10-14 02:17:07+00",8.7,9.7,,53.5,-355,161,20,1017.78,53.1,0
"2018-10-14 02:22:07+00",9.5,10.5,,53.4,-391,157,20,1017.76,52.9,0
"2018-10-14 02:27:07+00",9.3,11.3,,53.3,-377,193,22,1017.86,52.9,0
"2018-10-14 02:32:07+00",11.2,12.2,,53.6,-433,262,27,1017.94,52.8,0
"2018-10-14 02:37:07+00",10.0,12.0,,53.7,-371,253,38,1018.07,52.9,0
"2018-10-14 02:42:07+00",9.8,11.8,,53.6,-365,243,31,1018.11,52.9,0
"2018-10-14 02:47:07+00",9.5,11.5,,53.6,-341,232,41,1018.17,52.9,0
"2018-10-14 02:52:07+00",11.7,12.7,,53.6,-459,257,31,1018.21,52.9,0
"2018-10-14 02:57:07+00",11.9,13.9,,53.5,-446,308,36,1018.17,52.9,0
"2018-10-14 03:02:07+00",12.7,13.7,,53.4,-441,354,35,1018.28,52.8,0
"2018-10-14 03:07:07+00",10.8,11.8,,53.4,-386,288,34,1018.35,52.9,0
"2018-10-14 03:12:07+00",11.2,12.2,,53.3,-402,299,33,1018.52,52.9,0
"2018-10-14 03:17:07+00",11.0,12.0,,53.2,-391,287,29,1018.58,52.8,0
"2018-10-14 03:22:07+00",10.5,12.5,,53.1,-368,290,36,1018.51,52.7,0
"2018-10-14 03:27:07+00",11.0,13.0,,53,-350,319,35,1018.66,52.7,0
"2018-10-14 03:32:07+00",11.7,12.7,,52.8,-390,341,38,1018.76,52.6,0
"2018-10-14 03:37:07+00",11.9,13.9,,52.8,-420,327,36,1018.84,52.4,0
"2018-10-14 03:42:07+00",12.4,14.4,,52.7,-408,372,31,1018.81,52.4,0
"2018-10-14 03:47:07+00",11.3,12.3,,52.6,-377,329,22,1018.9,52.3,0
"2018-10-14 03:52:07+00",10.5,11.5,,52.7,-350,318,30,1018.8,52.3,0
"2018-10-14 03:57:07+00",11.4,12.4,,52.6,-342,346,36,1018.77,52.2,0
"2018-10-14 04:02:07+00",8.1,10.1,,52.6,-292,222,26,1018.91,52.2,0
"2018-10-14 04:07:07+00",9.5,10.5,,52.5,-304,295,28,1018.85,52.1,0
"2018-10-14 04:12:07+00",7.9,8.9,,52.5,-255,240,37,1018.95,52.1,0
"2018-10-14 04:17:07+00",6.4,8.4,,52.4,-213,182,42,1018.99,52,0
"2018-10-14 04:22:07+00",6.4,7.4,,52.3,-205,195,25,1019.01,51.9,0
"2018-10-14 04:27:07+00",7.4,8.4,,52.5,-231,231,33,1018.96,51.8,0
"2018-10-14 04:32:07+00",8.5,9.5,,52.3,-286,235,29,1019.09,51.6,0
"2018-10-14 04:37:07+00",8.0,10.0,,52.2,-264,251,30,1019.15,51.6,0
"2018-10-14 04:42:07+00",7.8,9.8,,52.3,-263,226,38,1019.31,51.7,0
"2018-10-14 04:47:07+00",7.4,8.4,,52.2,-271,196,35,1019.31,51.7,0
"2018-10-14 04:52:07+00",8.0,9.0,,52.1,-265,244,27,1019.38,51.6,0
"2018-10-14 04:57:07+00",7.5,8.5,,52.1,-266,190,21,1019.51,51.6,0
"2018-10-14 05:02:07+00",6.7,7.7,,52,-243,177,29,1019.35,51.5,0
"2018-10-14 05:07:07+00",8.5,9.5,,51.8,-316,204,22,1019.46,51.4,0
"2018-10-14 05:12:07+00",7.3,9.3,,51.7,-219,226,16,1019.38,51.3,0
"2018-10-14 05:17:07+00",8.0,9.0,,51.6,-237,258,33,1019.36,51.1,0
"2018-10-14 05:22:07+00",8.9,9.9,,51.7,-283,263,28,1019.63,51.1,0
"2018-10-14 05:27:07+00",9.2,10.2,,51.6,-292,284,29,1019.66,51.1,0
"2018-10-14 05:32:07+00",10.3,11.3,,51.5,-354,296,27,1019.89,51,0
"2018-10-14 05:37:07+00",9.3,10.3,,51.4,-319,262,27,1019.9,51,0
"2018-10-14 05:42:07+00",9.9,10.9,,51.5,-341,287,23,1020.06,51.1,0
"2018-10-14 05:47:07+00",11.3,12.3,,51.5,-351,359,28,1019.95,51,0
"2018-10-14 05:52:07+00",11.3,12.3,,51.4,-348,364,24,1020.02,51,0
"2018-10-14 05:57:07+00",9.5,10.5,,51.2,-267,319,30,1020.1,50.9,0
"2018-10-14 06:02:07+00",10.5,11.5,,51,-269,365,19,1019.94,50.7,0
"2018-10-14 06:07:07+00",4.6,5.6,,50.6,-117,158,13,1020.1,50.4,0
"2018-10-14 06:12:07+00",4.5,5.5,,50.3,-91,162,13,1020.24,50,0
"2018-10-14 06:17:07+00",7.1,8.1,,50.1,-162,257,12,1020.22,49.5,0
"2018-10-14 06:22:07+00",7.7,9.7,,50.3,-241,245,31,1020.26,49.3,0
"2018-10-14 06:27:07+00",10.3,11.3,,50.6,-329,315,26,1020.36,49.6,0
"2018-10-14 06:32:07+00",11.1,12.1,,50.6,-366,338,41,1020.28,49.9,0
"2018-10-14 06:37:07+00",11.2,14.2,,50.4,-400,311,55,1020.36,50,0
"2018-10-14 06:42:07+00",11.8,12.8,,50.4,-435,296,44,1020.33,50.1,0
"2018-10-14 06:47:07+00",13.3,15.3,,50.5,-484,348,30,1020.38,50.1,0
"2018-10-14 06:52:07+00",13.1,15.1,,50.6,-492,318,22,1020.56,50.2,0
"2018-10-14 06:57:07+00",12.9,14.9,,50.5,-493,325,34,1020.55,50.2,0
"2018-10-14 07:02:07+00",10.2,12.2,,50.6,-381,217,32,1020.69,50.3,0
"2018-10-14 07:07:07+00",12.4,14.4,,50.6,-382,397,33,1020.62,50.2,0
"2018-10-14 07:12:07+00",8.3,10.3,,49.8,-207,297,20,1020.73,49.8,0
"2018-10-14 07:17:07+00",9.7,10.7,,49.4,-301,307,26,1020.6,49.4,0
"2018-10-14 07:22:07+00",9.7,10.7,,49.4,-300,313,32,1020.73,49.2,0
"2018-10-14 07:27:07+00",10.6,11.6,,49.3,-298,360,25,1020.64,49.1,0
"2018-10-14 07:32:07+00",8.4,9.4,,49.1,-199,310,27,1020.69,48.9,0
"2018-10-14 07:37:07+00",9.0,11.0,,48.5,-198,336,14,1020.57,48.5,0
"2018-10-14 07:42:07+00",9.1,10.1,,48,-242,322,19,1020.81,48,0
"2018-10-14 07:47:07+00",8.3,10.3,,47.9,-223,289,19,1020.72,47.8,0
"2018-10-14 07:52:07+00",8.5,10.5,,47.8,-224,305,20,1020.82,47.6,0
"2018-10-14 07:57:07+00",7.6,8.6,,47.7,-202,257,32,1021.03,47.4,0
"2018-10-14 08:02:07+00",9.7,10.7,,48.1,-259,334,24,1021.11,47.4,0
"2018-10-14 08:07:07+00",9.1,11.1,,48.2,-200,347,24,1021.05,47.5,0
"2018-10-14 08:12:07+00",8.3,9.3,,48.1,-164,324,15,1020.94,47.4,0
"2018-10-14 08:17:07+00",8.8,9.8,,47.7,-201,324,17,1021.05,47.3,0
"2018-10-14 08:22:07+00",9.7,10.7,,47.4,-211,360,18,1021.04,47,0
"2018-10-14 08:27:07+00",6.8,7.8,,47.2,-162,240,23,1020.97,46.9,0
"2018-10-14 08:32:07+00",8.3,9.3,,47,-214,295,28,1021.03,46.8,0
"2018-10-14 08:37:07+00",9.2,10.2,,47,-223,333,13,1021.07,46.6,0
"2018-10-14 08:42:07+00",8.8,9.8,,46.8,-231,315,20,1021.17,46.5,0
"2018-10-14 08:47:07+00",9.5,10.5,,47,-244,333,21,1021.15,46.5,0
"2018-10-14 08:52:07+00",8.7,9.7,,47.2,-233,294,20,1021.22,46.6,0
"2018-10-14 08:57:07+00",8.4,9.4,,47.5,-214,300,16,1021.23,46.7,0
"2018-10-14 09:02:07+00",8.8,9.8,,47.8,-234,301,23,1021.32,46.9,0
"2018-10-14 09:07:07+00",8.5,9.5,,47.9,-203,315,21,1021.23,47,0
"2018-10-14 09:12:07+00",7.4,8.4,,47.8,-145,284,13,1021.11,47.1,0
"2018-10-14 09:17:07+00",7.6,8.6,,47.3,-141,304,7,1021.23,46.9,0
"2018-10-14 09:22:07+00",7.0,8.0,,46.8,-148,265,14,1021.2,46.6,0
"2018-10-14 09:27:07+00",4.2,5.2,,46.6,-35,171,11,1021.15,46.4,0
"2018-10-14 09:32:07+00",5.9,6.9,,46.3,-66,241,8,1021.28,46,0
"2018-10-14 09:37:07+00",5.3,6.3,,46.2,-72,213,8,1021.15,45.8,0
"2018-10-14 09:42:07+00",5.4,6.4,,46,-86,206,14,1021.33,45.6,0
"2018-10-14 09:47:07+00",5.1,6.1,,46,-87,196,14,1021.39,45.5,0
"2018-10-14 09:52:07+00",5.6,6.6,,46.1,-82,222,9,1021.27,45.5,0
"2018-10-14 09:57:07+00",4.3,4.3,,46.4,-69,160,8,1021.33,45.5,0
"2018-10-14 10:02:07+00",4.6,5.6,,46.5,-63,177,4,1021.49,45.6,0
"2018-10-14 10:07:07+00",5.1,6.1,,46.8,-98,189,12,1021.47,45.7,0
"2018-10-14 10:12:07+00",5.7,6.7,,47.1,-121,214,11,1021.4,46,0
"2018-10-14 10:17:07+00",5.1,6.1,,47.3,-126,176,24,1021.49,46.3,0
"2018-10-14 10:22:07+00",5.5,6.5,,47.3,-135,190,15,1021.5,46.5,0
"2018-10-14 10:27:07+00",4.9,5.9,,47.4,-121,168,11,1021.56,46.6,0
"2018-10-14 10:32:07+00",5.2,5.2,,47.6,-149,162,11,1021.61,46.8,0
"2018-10-14 10:37:07+00",4.9,4.9,,47.9,-132,161,10,1021.6,47,0
"2018-10-14 10:42:07+00",5.2,5.2,,48,-120,182,9,1021.68,47.1,0
"2018-10-14 10:47:07+00",5.1,6.1,,48.2,-101,192,13,1021.63,47.2,0
"2018-10-14 10:52:07+00",5.0,6.0,,48.3,-103,183,10,1021.59,47.3,0
"2018-10-14 10:57:07+00",5.6,6.6,,48.2,-89,216,11,1021.61,47.3,0
"2018-10-14 11:02:07+00",4.7,4.7,,48.1,-46,189,2,1021.5,47.3,0
"2018-10-14 11:07:07+00",5.3,5.3,,47.8,-45,220,2,1021.35,47.3,0
"2018-10-14 11:12:07+00",4.9,5.9,,47.4,-49,195,4,1021.38,47.2,0
"2018-10-14 11:17:07+00",5.1,6.1,,47.3,-5,211,4,1021.19,47,0
"2018-10-14 11:22:07+00",4.7,5.7,,47,-19,196,0,1021.21,46.9,0
"2018-10-14 11:27:07+00",4.3,4.3,,47,-9,176,5,1021.21,46.8,0
"2018-10-14 11:32:07+00",3.7,4.7,,47.1,-60,136,2,1021.46,46.8,0
"2018-10-14 11:37:07+00",3.7,4.7,,47.3,-72,138,7,1021.57,46.9,0
"2018-10-14 11:42:07+00",3.5,3.5,,47.7,-37,141,6,1021.59,47.2,0.6
"2018-10-14 11:47:07+00",3.5,4.5,,48.1,-15,142,2,1021.52,47.5,6.6
"2018-10-14 11:52:07+00",3.9,3.9,,48.6,11,158,2,1021.53,47.8,13.2
"2018-10-14 11:57:07+00",3.1,4.1,,49,-59,127,6,1021.78,48.1,5.6
"2018-10-14 12:02:07+00",2.6,3.6,,49.4,-58,105,12,1021.73,48.6,15.3
"2018-10-14 12:07:07+00",1.9,2.9,,49.7,-27,85,4,1021.61,49.1,20
"2018-10-14 12:12:07+00",2.1,2.1,,50,-21,94,-1,1021.6,49.5,16.8
"2018-10-14 12:17:07+00",3.0,3.0,,50.2,-46,130,13,1021.59,49.9,13.6
"2018-10-14 12:22:07+00",3.3,4.3,,50.3,-35,140,4,1021.5,50.2,3.7
"2018-10-14 12:27:07+00",3.8,3.8,,50.5,-95,142,5,1021.78,50.4,8.4
"2018-10-14 12:32:07+00",4.5,5.5,,50.6,-73,183,6,1021.87,50.6,26.2
"2018-10-14 12:37:07+00",6.2,7.2,,50.8,-203,188,18,1022.4,50.8,24.6
"2018-10-14 12:42:07+00",4.3,5.3,,51.2,-70,179,12,1022.34,51.2,39.5
"2018-10-14 12:47:07+00",4.0,5.0,,51.5,-57,158,33,1021.93,51.8,214.9
"2018-10-14 12:52:07+00",4.1,5.1,,51.9,-97,145,26,1022.07,52.9,111.1
"2018-10-14 12:57:07+00",4.3,5.3,,52,-115,152,10,1022.17,53.5,72.6
"2018-10-14 13:02:07+00",4.5,5.5,,52.2,-147,135,20,1022.33,53.6,117.4
"2018-10-14 13:07:07+00",5.9,6.9,,52.6,-187,179,3,1022.38,54,191.4
"2018-10-14 13:12:07+00",6.4,7.4,,52.9,-237,153,-1,1022.65,54.6,198.9
"2018-10-14 13:17:07+00",6.5,7.5,,53,-213,194,19,1022.73,55.2,214.9
"2018-10-14 13:22:07+00",7.2,8.2,,53.2,-230,214,16,1022.87,55.6,76.9
"2018-10-14 13:27:07+00",5.2,6.2,,53,-176,144,30,1022.87,55.2,73.3
"2018-10-14 13:32:07+00",6.2,7.2,,53.1,-198,187,25,1023.01,55,93.2
"2018-10-14 13:37:07+00",7.0,7.0,,53.2,-244,183,5,1023.31,54.8,112.8
"2018-10-14 13:42:07+00",6.4,8.4,,53.5,-246,129,41,1023.36,54.9,127.6
"2018-10-14 13:47:07+00",7.3,8.3,,53.8,-203,220,63,1023.33,55.2,155.3
"2018-10-14 13:52:07+00",7.7,8.7,,53.7,-248,234,17,1023.5,55.2,124.4
"2018-10-14 13:57:07+00",7.3,8.3,,53.6,-250,211,27,1023.6,55.1,134.2
"2018-10-14 14:02:07+00",6.5,7.5,,53.7,-202,199,49,1023.64,55.1,147
"2018-10-14 14:07:07+00",8.1,9.1,,53.8,-286,225,10,1023.82,55.2,119.2
"2018-10-14 14:12:07+00",6.2,7.2,,53.8,-192,183,20,1023.91,55.2,127.9
"2018-10-14 14:17:07+00",5.8,6.8,,54.1,-180,177,5,1023.8,55.4,128.9
"2018-10-14 14:22:07+00",5.0,7.0,,54.3,-161,142,31,1023.59,55.8,163.7
"2018-10-14 14:27:07+00",4.9,5.9,,54.6,-166,125,16,1023.63,56.1,135.2
"2018-10-14 14:32:07+00",5.9,6.9,,55,-214,143,1,1023.71,56.5,133.1
"2018-10-14 14:37:07+00",4.7,5.7,,55.2,-168,116,27,1023.48,56.9,132
"2018-10-14 14:42:07+00",4.9,5.9,,55.3,-149,148,3,1023.6,57.1,128.8
"2018-10-14 14:47:07+00",6.4,7.4,,55.5,-204,186,26,1023.69,57.2,121.8
"2018-10-14 14:52:07+00",6.5,7.5,,55.6,-217,181,13,1023.82,57.2,132.4
"2018-10-14 14:57:07+00",7.8,8.8,,55.8,-300,167,2,1023.93,57.4,178
"2018-10-14 15:02:07+00",8.4,9.4,,56.1,-331,152,4,1024,57.8,203.2
"2018-10-14 15:07:07+00",7.8,8.8,,56.4,-298,160,33,1023.91,58.3,182.8
"2018-10-14 15:12:07+00",7.6,9.6,,56.6,-292,151,24,1023.95,58.7,216.6
"2018-10-14 15:17:07+00",7.0,8.0,,56.7,-287,117,52,1023.84,59.1,161.6
"2018-10-14 15:22:07+00",7.5,9.5,,56.6,-288,159,51,1023.93,59.1,105.1
"2018-10-14 15:27:07+00",8.4,9.4,,56.6,-367,115,22,1024,58.9,89.2
"2018-10-14 15:32:07+00",7.5,8.5,,56.8,-309,117,52,1024.21,58.8,87.2
"2018-10-14 15:37:07+00",8.4,9.4,,56.8,-331,172,26,1024.17,58.5,94.4
"2018-10-14 15:42:07+00",9.1,10.1,,56.8,-372,167,26,1024.24,58.4,103.6
"2018-10-14 15:47:07+00",9.3,10.3,,56.9,-410,47,28,1024.28,58.4,98.6
"2018-10-14 15:52:07+00",9.0,10.0,,57.1,-393,90,47,1024.26,58.5,71.6
"2018-10-14 15:57:07+00",8.5,9.5,,57,-360,105,12,1024.24,58.5,53.7
"2018-10-14 16:02:07+00",9.0,10.0,,57,-380,123,15,1024.19,58.4,38.1
"2018-10-14 16:07:07+00",6.0,7.0,,57,-252,49,36,1024.19,58.3,33.8
"2018-10-14 16:12:07+00",8.4,8.4,,57,-366,103,27,1024.16,58.2,29.9
"2018-10-14 16:17:07+00",8.6,9.6,,57.2,-381,33,15,1024.22,58.1,38.3
"2018-10-14 16:22:07+00",8.5,9.5,,57.2,-372,79,34,1024.3,58.2,58.7
"2018-10-14 16:27:07+00",7.2,8.2,,57.3,-298,103,27,1024.28,58.3,87.3
"2018-10-14 16:32:07+00",5.0,6.0,,57.4,-176,126,32,1024.1,58.6,115.2
"2018-10-14 16:37:07+00",6.2,6.2,,57.6,-250,128,49,1023.99,58.9,122.6
"2018-10-14 16:42:07+00",7.8,9.8,,57.7,-341,19,8,1023.99,59,94.6
"2018-10-14 16:47:07+00",9.5,10.5,,57.6,-396,154,41,1023.97,59.1,68.7
"2018-10-14 16:52:07+00",8.2,9.2,,57.6,-351,119,29,1023.84,59,46.6
"2018-10-14 16:57:07+00",9.5,11.5,,57.6,-392,160,49,1023.9,58.8,56
"2018-10-14 17:02:07+00",7.7,8.7,,57.7,-327,78,42,1023.72,58.7,58.3
"2018-10-14 17:07:07+00",8.4,9.4,,57.7,-350,111,27,1023.55,58.7,36.2
"2018-10-14 17:12:07+00",9.2,11.2,,57.7,-399,112,20,1023.35,58.6,25
"2018-10-14 17:17:07+00",9.6,10.6,,57.6,-365,228,22,1023.34,58.3,20.8
"2018-10-14 17:22:07+00",7.8,9.8,,57.6,-324,146,22,1023.42,58.2,24.9
"2018-10-14 17:27:07+00",8.5,10.5,,57.7,-377,58,33,1023.45,58.3,30.1
"2018-10-14 17:32:07+00",9.1,10.1,,57.7,-390,109,28,1023.34,58.3,33.9
"2018-10-14 17:37:07+00",8.3,10.3,,57.7,-333,150,44,1023.28,58.4,28.3
"2018-10-14 17:42:07+00",7.0,9.0,,57.8,-263,148,25,1023.22,58.4,31.3
"2018-10-14 17:47:07+00",7.6,8.6,,57.8,-320,108,18,1023.11,58.4,37.7
"2018-10-14 17:52:07+00",5.5,6.5,,57.8,-201,104,73,1022.95,58.4,27.9
"2018-10-14 17:57:07+00",4.7,5.7,,57.7,-202,26,21,1022.75,58.4,36.5
"2018-10-14 18:02:07+00",6.8,7.8,,57.8,-299,51,7,1022.97,58.5,60.6
"2018-10-14 18:07:07+00",7.6,9.6,,57.8,-332,41,20,1023.04,58.7,57.2
"2018-10-14 18:12:07+00",8.6,9.6,,57.8,-358,125,16,1023.14,58.7,54.9
"2018-10-14 18:17:07+00",7.3,8.3,,57.8,-318,45,8,1023.06,58.9,97.1
"2018-10-14 18:22:07+00",7.6,8.6,,57.9,-332,4,22,1022.8,59.2,95.9
"2018-10-14 18:27:07+00",8.0,9.0,,57.8,-347,50,7,1022.92,59.4,107.5
"2018-10-14 18:32:07+00",8.9,9.9,,57.9,-389,-25,9,1023.03,59.7,188.6
"2018-10-14 18:37:07+00",7.6,8.6,,57.9,-325,-17,19,1023.06,60,141
"2018-10-14 18:42:07+00",8.2,10.2,,58,-351,106,40,1023,60.3,128.8
"2018-10-14 18:47:07+00",9.4,11.4,,58,-378,160,40,1023.06,60.3,170.1
"2018-10-14 18:52:07+00",9.7,11.7,,58.1,-370,196,37,1023.16,60.3,145.6
"2018-10-14 18:57:07+00",8.0,9.0,,58,-321,161,25,1023.02,60.1,230
"2018-10-14 19:02:07+00",8.0,10.0,,58.3,-322,144,36,1022.91,60.7,242.6
"2018-10-14 19:07:07+00",8.4,11.4,,58.5,-356,128,48,1022.88,61.1,135.3
"2018-10-14 19:12:07+00",8.3,10.3,,58.2,-325,149,63,1023.04,60.8,85.5
"2018-10-14 19:17:07+00",11.0,12.0,,58.1,-449,198,25,1023.17,60.1,67.6
"2018-10-14 19:22:07+00",9.2,10.2,,57.9,-382,140,24,1023.25,59.8,52.3
"2018-10-14 19:27:07+00",8.4,10.4,,58,-358,122,37,1023.27,59.5,53.8
"2018-10-14 19:32:07+00",8.6,10.6,,58.1,-375,0,38,1023.13,59.5,78.1
"2018-10-14 19:37:07+00",8.7,9.7,,58,-374,106,29,1022.98,59.6,66.3
"2018-10-14 19:42:07+00",8.0,9.0,,58,-344,90,16,1022.98,59.5,43.3
"2018-10-14 19:47:07+00",10.5,11.5,,58,-464,32,15,1023.1,59.4,36.5
"2018-10-14 19:52:07+00",9.6,11.6,,58,-428,52,30,1023.14,59.2,35.4
"2018-10-14 19:57:07+00",7.1,9.1,,58,-309,7,30,1022.92,59.2,37.2
"2018-10-14 20:02:07+00",7.9,8.9,,57.9,-327,-92,6,1023.04,59.1,28
"2018-10-14 20:07:07+00",9.3,10.3,,58,-405,-24,17,1023.16,59.2,38.8
"2018-10-14 20:12:07+00",7.4,8.4,,58,-316,-30,20,1023.1,59.2,38.5
"2018-10-14 20:17:07+00",7.8,8.8,,58,-343,14,19,1023.15,59.2,33.5
"2018-10-14 20:22:07+00",6.7,8.7,,58.1,-289,-17,38,1023.09,59.2,27.3
"2018-10-14 20:27:07+00",7.3,9.3,,58,-321,-5,42,1023.11,59.2,32.5
"2018-10-14 20:32:07+00",6.4,7.4,,58.1,-274,-26,22,1023.06,59.2,31.8
"2018-10-14 20:37:07+00",7.7,9.7,,58,-333,-13,27,1023.2,59.3,24.1
"2018-10-14 20:42:07+00",9.2,11.2,,58,-407,16,30,1023.19,59.2,19.8
"2018-10-14 20:47:07+00",9.5,10.5,,58,-400,-70,15,1023.06,59.1,19.6
"2018-10-14 20:52:07+00",7.4,8.4,,58,-318,90,50,1023.05,59,13.6
"2018-10-14 20:57:07+00",8.0,9.0,,58,-355,35,12,1022.92,59,13.7
"2018-10-14 21:02:07+00",7.0,8.0,,58,-288,-55,21,1022.86,58.9,12.3
"2018-10-14 21:07:07+00",5.9,6.9,,58,-254,34,36,1022.91,58.9,7.3
"2018-10-14 21:12:07+00",6.5,7.5,,58,-284,-1,16,1023.03,58.9,4.9
"2018-10-14 21:17:07+00",7.9,9.9,,58,-334,78,-1,1022.82,58.7,2.4
"2018-10-14 21:22:07+00",6.8,7.8,,58,-291,66,27,1022.81,58.7,0.5
"2018-10-14 21:27:07+00",4.4,5.4,,57.9,-180,68,17,1022.74,58.6,0.2
"2018-10-14 21:32:07+00",5.2,6.2,,58,-223,-11,33,1022.7,58.5,0
"2018-10-14 21:37:07+00",6.5,7.5,,57.9,-273,-25,4,1022.65,58.5,0.1
"2018-10-14 21:42:07+00",5.0,6.0,,58,-219,15,15,1022.63,58.5,3.5
"2018-10-14 21:47:07+00",5.7,6.7,,58.2,-223,111,14,1022.64,58.7,29.5
"2018-10-14 21:52:07+00",6.2,7.2,,58.4,-269,51,23,1022.59,59.3,16.8
"2018-10-14 21:57:07+00",3.7,4.7,,58.3,-146,-30,15,1022.53,59.8,0.1
"2018-10-14 22:02:07+00",3.2,4.2,,58.4,-127,45,6,1022.41,59.9,0.7
"2018-10-14 22:07:07+00",0.0,0.0,,58.6,-72,5,26,1022.38,60.1,0
"2018-10-14 22:12:07+00",3.6,4.6,,58.4,-141,68,17,1022.41,60.2,0
"2018-10-14 22:17:07+00",4.8,5.8,,58,-199,60,11,1022.57,59.9,0
"2018-10-14 22:22:07+00",4.4,5.4,,57.9,-181,52,7,1022.48,59.2,0
"2018-10-14 22:27:07+00",3.4,3.4,,57.8,-120,68,7,1022.58,58.4,0
"2018-10-14 22:32:07+00",3.9,3.9,,57.8,-150,80,11,1022.58,57.8,0
"2018-10-14 22:37:07+00",3.1,4.1,,57.7,-121,50,3,1022.59,57.2,0
"2018-10-14 22:42:07+00",2.6,3.6,,57.6,-103,-9,4,1022.6,56.8,0
"2018-10-14 22:47:07+00",1.7,2.7,,57.6,-64,4,20,1022.61,56.5,0
"2018-10-14 22:52:07+00",2.4,2.4,,57.6,-102,-3,20,1022.65,56.2,0
"2018-10-14 22:57:07+00",0.0,0.0,,57.5,-6,-10,2,1022.61,56,0
"2018-10-14 23:02:07+00",0.0,0.0,,57.3,-40,84,-4,1022.61,55.8,0
"2018-10-14 23:07:07+00",0.0,0.0,,57.1,25,77,2,1022.49,55.7,0
"2018-10-14 23:12:07+00",0.0,0.0,,56.9,32,81,-4,1022.47,55.6,0
"2018-10-14 23:17:07+00",3.6,3.6,,56.7,-13,145,4,1022.59,55.5,0
"2018-10-14 23:22:07+00",3.7,4.7,,56.6,-47,144,8,1022.68,55.3,0
"2018-10-14 23:27:07+00",3.5,3.5,,56.8,-53,132,3,1022.71,55.1,0
"2018-10-14 23:32:07+00",3.3,4.3,,56.7,-25,131,1,1022.67,54.9,0
"2018-10-14 23:37:07+00",3.0,3.0,,56.6,-10,118,1,1022.68,54.7,0
"2018-10-14 23:42:07+00",2.8,3.8,,56.6,-8,111,3,1022.64,54.6,0
"2018-10-14 23:47:07+00",2.8,2.8,,56.6,-8,110,4,1022.68,54.5,0
"2018-10-14 23:52:07+00",2.4,2.4,,56.5,1,93,4,1022.6,54.5,0
"2018-10-14 23:57:07+00",1.7,1.7,,56.4,48,39,-1,1022.62,54.7,0
